Flag for U.S.A. Weather past 2 weeks in Pomona, California, U.S.A.

Now
87 °F

Passing clouds.


Feels Like: 85 °F
Forecast: 63 / 95 °F
Wind: 3 mph from West

Location: Chino Airport

Current Time: Jul 23, 2014 at 11:49:02 AM

Latest Report: Jul 23, 2014 at 10:53 AM


Visibility: 10 mi

Pressure: 29.98 "Hg

Humidity: 31%

Dew point: 53 °F

Location of PomonaLocation

Historic Weather in Pomona — Graph

°F

Pomona temperature yesterday

Maximum temperature yesterday: 90 °F (at 4:53 PM)
Minimum temperature yesterday: 59 °F (at 5:53 AM)
Average temperature yesterday: 70 °F

Past Weeks' High & Low Weather Summary

 TemperatureHumidityPressure
High92 °F (Jul 8, 1:53 PM)97% (Jul 11, 6:53 AM)30.06 "Hg (Jul 11, 6:53 AM)
Low57 °F (Jul 23, 4:53 AM)28% (Jul 11, 2:53 PM)29.83 "Hg (Jul 13, 5:53 PM)
Average73 °F67%29.96 "Hg
* Reported Jul 8 9:53 AM — Jul 23 9:53 AM, Pomona, Weather by CustomWeather, © 2014

Note: Actual official high and low records may vary slightly from our data, if they occured in-between our weather recording intervals... More about our weather records

Advertising

Pomona weather history for previous 24 hours

 ConditionsComfort  
Time TempWeatherWind HumidityBarometerVisibility
9:53 AM
Jul 23
82 °FSunny.No wind41%30.00 "Hg10 mi
8:53 AM76 °FSunny.No wind48%30.01 "Hg10 mi
7:53 AM70 °FSunny.No wind57%30.01 "Hg10 mi
6:53 AM63 °FClear.No wind78%30.01 "Hg10 mi
5:53 AM60 °FClear.No wind83%30.00 "Hg6 mi
4:53 AM57 °FClear.No wind87%29.99 "Hg8 mi
3:53 AM61 °FClear.No wind81%29.99 "Hg7 mi
2:53 AM62 °FClear.No wind78%30.00 "Hg7 mi
1:53 AM63 °FClear.No wind75%30.00 "Hg9 mi
12:53 AM64 °FClear.No wind70%30.00 "Hg8 mi
10:53 PM
Jul 22
67 °FClear.5 mph61%30.01 "Hg7 mi
9:53 PM69 °FClear.7 mph55%30.01 "Hg10 mi
8:53 PM73 °FSunny.5 mph48%29.99 "Hg10 mi
7:53 PM77 °FSunny.8 mph44%29.98 "Hg10 mi
6:53 PM83 °FSunny.13 mph34%29.97 "Hg10 mi
5:53 PM87 °FSunny.15 mph32%29.97 "Hg10 mi
4:53 PM90 °FPassing clouds.13 mph32%29.97 "Hg10 mi
Weather by CustomWeather, © 2014

See weather overviewHow to use our weather pages